Other Public Products
Issued by NWS Charleston, SC

Current Version | Previous Version | Graphics & Text | Print | Product List | Glossary On
Versions: 1 2 3 4 5 6 7 8 9 10 11 12 13 14 15 16 17 18 19 20 21 22 23 24 25 26 27 28 29 30 31 32 33 34 35 36 37 38 39 40 41 42 43 44 45 46 47 48 49 50
000
FPUS82 KCHS 240012
OPUCHS

TEST...KCHS/KSAV Gateway Observations...TEST
National Weather Service Charleston SC
800 PM EDT MON APR 23 2018

NOTE: "fair" indicates few or no clouds below 12,000 feet with no
significant weather and/or obstructions to visibility.

SCZ050-WAZ558-NCZ071-TXZ119-213-PAZ071-DCZ001-FLZ074-172-MI076-
NYZ176-178-MAZ016-IL014-TNZ027-NJZ106-GAZ044-MD014-240100-

...Gateway Observations for Charleston International...

CITY           SKY/WX    TMP DP  RH WIND       PRES   REMARKS
Chas Airport   RAIN      67  65  93 SE25G37   29.97R FOG
6HR MIN TEMP:  66; 6HR MAX TEMP:  68; 6HR PCP:  1.12;

Seattle        MOSUNNY   67  37  33 N17       30.23F
6HR MIN TEMP:  57; 6HR MAX TEMP:  69;

Charlotte      RAIN      58  57  97 E14       30.11F FOG
6HR MIN TEMP:  58; 6HR MAX TEMP:  59; 6HR PCP:  1.28;

Dallas DFW     MOSUNNY   74  51  44 VRB6      29.98S
6HR MIN TEMP:  69; 6HR MAX TEMP:  76;

Dallas Love    MOSUNNY   75  51  43 N12       29.98F
6HR MIN TEMP:  70; 6HR MAX TEMP:  77;

Philladelphia  MOCLDY    59  30  33 S8        30.40R
6HR MIN TEMP:  59; 6HR MAX TEMP:  70;

Wash National  MOCLDY    61  34  36 SE13      30.38R
6HR MIN TEMP:  61; 6HR MAX TEMP:  69;

Baltimore      MOCLDY    61  35  37 S6        30.37R
6HR MIN TEMP:  61; 6HR MAX TEMP:  68;

Miami          MOCLDY    75  71  87 VRB6      29.99R
6HR MIN TEMP:  71; 6HR MAX TEMP:  80; 6HR PCP:  1.26;

Detroit        CLOUDY    66  40  38 SE9       30.15R
6HR MIN TEMP:  66; 6HR MAX TEMP:  72;

Newark         MOCLDY    52  40  63 E5        30.42S
6HR MIN TEMP:  52; 6HR MAX TEMP:  64;

Laguardia      MOCLDY    54  33  45 S7        30.43R
6HR MIN TEMP:  54; 6HR MAX TEMP:  65;

J F K          FAIR      48  42  80 SE7       30.45S
6HR MIN TEMP:  48; 6HR MAX TEMP:  59;

Boston Logan   FAIR      53  28  38 S13       30.43R
6HR MIN TEMP:  50; 6HR MAX TEMP:  56;

Ft. Lauderdale MOCLDY    79  74  84 S10       29.97S
6HR MIN TEMP:  78; 6HR MAX TEMP:  83; 6HR PCP:  0.04;

Chicago O`Hare CLOUDY    55  23  28 NE13      30.10S
6HR MIN TEMP:  55; 6HR MAX TEMP:  63;

Chicago Midway CLOUDY    55  27  34 NE12      30.10S
6HR MIN TEMP:  55; 6HR MAX TEMP:  64;

Houston Bush   FAIR      77  52  41 N13       29.96S
6HR MIN TEMP:  75; 6HR MAX TEMP:  80;

Houston Hobby  FAIR      78  49  35 NW10      29.96S
6HR MIN TEMP:  75; 6HR MAX TEMP:  80;

Nashville      MOCLDY    61  57  87 E6        29.90S
6HR MIN TEMP:  61; 6HR MAX TEMP:  70; 6HR PCP:  0.01;

Atlanta        CLOUDY    65  62  90 E15       29.86S
6HR MIN TEMP:  63; 6HR MAX TEMP:  69; 6HR PCP:  0.45;


$$

GAZ044-118-TXZ119-213-NCZ071-DCZ001-MDZ014-506-PAZ021-071-NJZ106-
NYZ176-178-MAZ106-OHZ011-021-055-MIZ076-KYZ091-ILZ014-INZ047-
MNZ060-ONZ431-240100-

...Gateway Observations for Savannah International...

CITY           SKY/WX    TMP DP  RH WIND       PRES   REMARKS
Savannah Arpt  CLOUDY    69  67  93 SE10      29.92F
6HR MIN TEMP:  69; 6HR MAX TEMP:  73; 6HR PCP:  0.21;

Atlanta        CLOUDY    65  62  90 E15       29.86S
6HR MIN TEMP:  63; 6HR MAX TEMP:  69; 6HR PCP:  0.45;

Charlotte      RAIN      58  57  97 E14       30.11F FOG
6HR MIN TEMP:  58; 6HR MAX TEMP:  59; 6HR PCP:  1.28;

Dallas DFW     MOSUNNY   74  51  44 VRB6      29.98S
6HR MIN TEMP:  69; 6HR MAX TEMP:  76;

Houston Bush   FAIR      77  52  41 N13       29.96S
6HR MIN TEMP:  75; 6HR MAX TEMP:  80;

Wash National  MOCLDY    61  34  36 SE13      30.38R
6HR MIN TEMP:  61; 6HR MAX TEMP:  69;

Wash Dulles    MOCLDY    60  39  45 SE15G21   30.35R
6HR MIN TEMP:  60; 6HR MAX TEMP:  69;

Baltimore      MOCLDY    61  35  37 S6        30.37R
6HR MIN TEMP:  61; 6HR MAX TEMP:  68;

Philadelphia   MOCLDY    59  30  33 S8        30.40R
6HR MIN TEMP:  59; 6HR MAX TEMP:  70;

Newark         MOCLDY    52  40  63 E5        30.42S
6HR MIN TEMP:  52; 6HR MAX TEMP:  64;

Laguardia      MOCLDY    54  33  45 S7        30.43R
6HR MIN TEMP:  54; 6HR MAX TEMP:  65;

J F K          FAIR      48  42  80 SE7       30.45S
6HR MIN TEMP:  48; 6HR MAX TEMP:  59;

Boston         FAIR      53  28  38 S13       30.43R
6HR MIN TEMP:  50; 6HR MAX TEMP:  56;

Pittsburg      CLOUDY    66  35  31 SE14      30.20R
6HR MIN TEMP:  66; 6HR MAX TEMP:  72;

Akron          CLOUDY    61  38  42 SW8       30.18R
6HR MIN TEMP:  61; 6HR MAX TEMP:  74;

Cleveland      CLOUDY    65  43  44 SW16G26   30.17R
6HR MIN TEMP:  65; 6HR MAX TEMP:  77;

Cincinnati     CLOUDY    54  51  90 E14       30.05S
6HR MIN TEMP:  54; 6HR MAX TEMP:  57; 6HR PCP:  0.07;

Columbus       DRIZZLE   54  45  72 E12G21    30.16S
Detroit        CLOUDY    66  40  38 SE9       30.15R
6HR MIN TEMP:  66; 6HR MAX TEMP:  72;

Chicago O`Hare CLOUDY    55  23  28 NE13      30.10S
6HR MIN TEMP:  55; 6HR MAX TEMP:  63;

Minneapolis    FAIR      69  37  30 CALM      30.12S
6HR MIN TEMP:  65; 6HR MAX TEMP:  71;

Indianapolis   CLOUDY    56  53  90 E13       30.03S
6HR MIN TEMP:  53; 6HR MAX TEMP:  57; 6HR PCP:  0.22;

Toronto Canada MOCLDY    57  18  21 E6        30.22R

$$




USA.gov is the U.S. government's official web portal to all federal, state and local government web resources and services.